When you browse on this site, cookies collect data to enhance your experience and personalize the content and advertising you see.
Visit our Privacy Policy to learn more. By continuing to use the site, you agree to this use of cookies and data.
  • In Österreich
  • Länderverzeichnis
  • Für 7 Tage
  • Wassertemperatur
  • Satellitenkarten
  • Wetterkarte
  • News
  • Widgets
  • user-avatar
    Anmelden

    Stündliche Wetter Torrington

    Heute, 21 April, Sonntag

    Zeit Temperatur Niederschläge Wind Luftdruck Luftfeuchtigkeit
    00:00 +12°C° 0 mm 2 m/S 740 mmHg 88%
    01:00 +12°C° 0 mm 2 m/S 740 mmHg 89%
    02:00 +12°C° 0 mm 1 m/S 740 mmHg 91%
    03:00 +11°C° 0 mm 1 m/S 740 mmHg 92%
    04:00 +11°C° 0 mm 1 m/S 740 mmHg 94%
    05:00 +12°C° 0 mm 1 m/S 741 mmHg 92%
    06:00 +12°C° 0 mm 1 m/S 741 mmHg 91%
    07:00 +13°C° 0 mm 1 m/S 741 mmHg 89%
    08:00 +14°C° 0 mm 2 m/S 742 mmHg 83%
    09:00 +15°C° 0 mm 2 m/S 742 mmHg 77%
    10:00 +16°C° 0 mm 3 m/S 742 mmHg 71%
    11:00 +17°C° 0 mm 3 m/S 742 mmHg 68%
    12:00 +17°C° 0 mm 3 m/S 743 mmHg 64%
    13:00 +18°C° 0 mm 4 m/S 743 mmHg 60%
    14:00 +17°C° 0 mm 3 m/S 743 mmHg 60%
    15:00 +17°C° 0 mm 3 m/S 743 mmHg 59%
    16:00 +17°C° 0 mm 3 m/S 743 mmHg 59%
    17:00 +14°C° 0 mm 3 m/S 743 mmHg 64%
    18:00 +13°C° 0 mm 2 m/S 743 mmHg 70%
    19:00 +12°C° 0 mm 1 m/S 744 mmHg 76%
    20:00 +11°C° 0 mm 1 m/S 744 mmHg 78%
    21:00 +11°C° 0 mm 1 m/S 744 mmHg 81%
    22:00 +9°C° 0 mm 0 m/S 744 mmHg 83%
    23:00 +8°C° 0 mm 0 m/S 744 mmHg 84%

    Morgen, 22 April, Montag

    Zeit Temperatur Niederschläge Wind Luftdruck Luftfeuchtigkeit
    00:00 +8°C° 0 mm 0 m/S 744 mmHg 86%
    01:00 +8°C° 0 mm 0 m/S 744 mmHg 87%
    02:00 +7°C° 0 mm 0 m/S 744 mmHg 86%
    03:00 +8°C° 0 mm 1 m/S 744 mmHg 86%
    04:00 +8°C° 0 mm 1 m/S 744 mmHg 85%
    05:00 +10°C° 0 mm 1 m/S 744 mmHg 80%
    06:00 +11°C° 0 mm 1 m/S 744 mmHg 75%
    07:00 +13°C° 0 mm 1 m/S 744 mmHg 70%
    08:00 +15°C° 0 mm 1 m/S 744 mmHg 65%
    09:00 +17°C° 0 mm 2 m/S 744 mmHg 60%
    10:00 +19°C° 0 mm 2 m/S 744 mmHg 55%
    11:00 +20°C° 0 mm 2 m/S 744 mmHg 53%
    12:00 +21°C° 0 mm 3 m/S 744 mmHg 52%
    13:00 +21°C° 0 mm 3 m/S 743 mmHg 50%
    14:00 +21°C° 0.4 mm 2 m/S 743 mmHg 54%
    15:00 +21°C° 0.4 mm 2 m/S 743 mmHg 58%
    16:00 +20°C° 0.4 mm 2 m/S 742 mmHg 62%
    17:00 +19°C° 0.4 mm 1 m/S 743 mmHg 69%
    18:00 +18°C° 0.4 mm 1 m/S 743 mmHg 76%
    19:00 +15°C° 0.4 mm 1 m/S 743 mmHg 83%
    20:00 +14°C° 0 mm 1 m/S 743 mmHg 86%
    21:00 +13°C° 0 mm 1 m/S 743 mmHg 88%
    22:00 +13°C° 0 mm 1 m/S 744 mmHg 90%
    23:00 +12°C° 0 mm 1 m/S 743 mmHg 92%

    übermorgen, 23 April, Dienstag

    Zeit Temperatur Niederschläge Wind Luftdruck Luftfeuchtigkeit
    00:00 +12°C° 0 mm 1 m/S 743 mmHg 93%
    01:00 +11°C° 0 mm 1 m/S 743 mmHg 95%
    02:00 +11°C° 0 mm 1 m/S 743 mmHg 95%
    03:00 +11°C° 0 mm 1 m/S 743 mmHg 95%
    04:00 +11°C° 0 mm 1 m/S 743 mmHg 96%
    05:00 +12°C° 0 mm 1 m/S 743 mmHg 94%
    06:00 +12°C° 0 mm 1 m/S 744 mmHg 92%
    07:00 +13°C° 0 mm 1 m/S 744 mmHg 90%
    08:00 +15°C° 0 mm 1 m/S 744 mmHg 81%
    09:00 +19°C° 0 mm 1 m/S 744 mmHg 72%
    10:00 +21°C° 0 mm 1 m/S 744 mmHg 63%
    11:00 +22°C° 0 mm 1 m/S 743 mmHg 58%
    12:00 +23°C° 0 mm 2 m/S 743 mmHg 53%
    13:00 +25°C° 0 mm 2 m/S 742 mmHg 47%
    14:00 +24°C° 0 mm 2 m/S 742 mmHg 49%
    15:00 +24°C° 0 mm 2 m/S 741 mmHg 50%
    16:00 +24°C° 0 mm 2 m/S 740 mmHg 52%
    17:00 +21°C° 0 mm 2 m/S 740 mmHg 59%
    18:00 +19°C° 0 mm 2 m/S 740 mmHg 66%
    19:00 +17°C° 0 mm 3 m/S 740 mmHg 74%
    20:00 +16°C° 0 mm 3 m/S 739 mmHg 77%
    21:00 +14°C° 0 mm 3 m/S 739 mmHg 80%
    22:00 +13°C° 0 mm 3 m/S 739 mmHg 83%
    23:00 +13°C° 0.1 mm 3 m/S 738 mmHg 83%

    24 April, Mittwoch

    Zeit Temperatur Niederschläge Wind Luftdruck Luftfeuchtigkeit
    00:00 +14°C° 0.1 mm 3 m/S 737 mmHg 83%
    01:00 +14°C° 0.1 mm 3 m/S 737 mmHg 83%
    02:00 +14°C° 0.2 mm 4 m/S 736 mmHg 85%
    03:00 +15°C° 0.2 mm 4 m/S 736 mmHg 86%
    04:00 +15°C° 0.2 mm 4 m/S 735 mmHg 87%
    05:00 +15°C° 0.1 mm 4 m/S 735 mmHg 86%
    06:00 +17°C° 0.1 mm 4 m/S 736 mmHg 85%
    07:00 +17°C° 0.1 mm 4 m/S 736 mmHg 84%
    08:00 +17°C° 0 mm 4 m/S 736 mmHg 75%
    09:00 +18°C° 0 mm 4 m/S 737 mmHg 66%
    10:00 +18°C° 0 mm 4 m/S 737 mmHg 56%
    11:00 +18°C° 0 mm 4 m/S 737 mmHg 52%
    12:00 +19°C° 0 mm 5 m/S 737 mmHg 48%
    13:00 +19°C° 0 mm 5 m/S 737 mmHg 43%
    14:00 +17°C° 0 mm 5 m/S 737 mmHg 44%
    15:00 +17°C° 0 mm 5 m/S 737 mmHg 44%
    16:00 +17°C° 0 mm 5 m/S 737 mmHg 45%
    17:00 +15°C° 0 mm 4 m/S 737 mmHg 51%
    18:00 +12°C° 0 mm 3 m/S 738 mmHg 58%
    19:00 +10°C° 0 mm 3 m/S 738 mmHg 65%
    20:00 +10°C° 0 mm 3 m/S 738 mmHg 68%
    21:00 +9°C° 0 mm 3 m/S 739 mmHg 71%
    22:00 +8°C° 0 mm 2 m/S 739 mmHg 73%
    23:00 +7°C° 0 mm 2 m/S 739 mmHg 75%

    25 April, Donnerstag

    Zeit Temperatur Niederschläge Wind Luftdruck Luftfeuchtigkeit
    00:00 +7°C° 0 mm 2 m/S 739 mmHg 78%
    01:00 +6°C° 0 mm 2 m/S 739 mmHg 80%
    02:00 +5°C° 0 mm 2 m/S 739 mmHg 81%
    03:00 +5°C° 0 mm 2 m/S 739 mmHg 81%
    04:00 +4°C° 0 mm 2 m/S 739 mmHg 82%
    05:00 +4°C° 0 mm 3 m/S 740 mmHg 76%
    06:00 +5°C° 0 mm 3 m/S 740 mmHg 69%
    07:00 +6°C° 0 mm 4 m/S 740 mmHg 63%
    08:00 +8°C° 0 mm 4 m/S 741 mmHg 56%
    09:00 +11°C° 0 mm 4 m/S 741 mmHg 50%
    10:00 +13°C° 0 mm 4 m/S 741 mmHg 44%
    11:00 +14°C° 0 mm 4 m/S 740 mmHg 41%
    12:00 +16°C° 0 mm 3 m/S 740 mmHg 39%
    13:00 +18°C° 0 mm 3 m/S 739 mmHg 36%
    14:00 +18°C° 0 mm 3 m/S 739 mmHg 36%
    15:00 +18°C° 0 mm 3 m/S 739 mmHg 36%
    16:00 +19°C° 0 mm 2 m/S 739 mmHg 36%
    17:00 +17°C° 0 mm 2 m/S 739 mmHg 44%
    18:00 +14°C° 0 mm 1 m/S 739 mmHg 51%
    19:00 +12°C° 0 mm 1 m/S 739 mmHg 59%
    20:00 +11°C° 0 mm 1 m/S 739 mmHg 61%
    21:00 +10°C° 0 mm 1 m/S 740 mmHg 64%
    22:00 +9°C° 0 mm 0 m/S 740 mmHg 67%
    23:00 +8°C° 0 mm 0 m/S 740 mmHg 67%

    26 April, Freitag

    Zeit Temperatur Niederschläge Wind Luftdruck Luftfeuchtigkeit
    00:00 +8°C° 0 mm 0 m/S 739 mmHg 68%
    01:00 +7°C° 0 mm 0 m/S 739 mmHg 69%
    02:00 +7°C° 0 mm 0 m/S 739 mmHg 70%
    03:00 +7°C° 0 mm 0 m/S 739 mmHg 71%
    04:00 +6°C° 0 mm 0 m/S 738 mmHg 72%
    05:00 +8°C° 0 mm 0 m/S 739 mmHg 68%
    06:00 +10°C° 0 mm 0 m/S 739 mmHg 64%
    07:00 +11°C° 0 mm 0 m/S 739 mmHg 60%
    08:00 +15°C° 0 mm 1 m/S 739 mmHg 56%
    09:00 +17°C° 0 mm 2 m/S 738 mmHg 51%
    10:00 +19°C° 0 mm 2 m/S 738 mmHg 47%
    11:00 +19°C° 0 mm 3 m/S 738 mmHg 44%
    12:00 +20°C° 0 mm 3 m/S 737 mmHg 41%
    13:00 +21°C° 0 mm 4 m/S 737 mmHg 38%
    14:00 +20°C° 0.1 mm 4 m/S 737 mmHg 42%
    15:00 +19°C° 0.1 mm 5 m/S 737 mmHg 47%
    16:00 +17°C° 0.1 mm 5 m/S 737 mmHg 52%
    17:00 +15°C° 0 mm 5 m/S 738 mmHg 58%
    18:00 +13°C° 0 mm 4 m/S 738 mmHg 64%
    19:00 +11°C° 0 mm 3 m/S 738 mmHg 70%
    20:00 +10°C° 0 mm 3 m/S 738 mmHg 72%
    21:00 +9°C° 0 mm 3 m/S 739 mmHg 74%
    22:00 +8°C° 0 mm 2 m/S 739 mmHg 76%
    23:00 +8°C° 0 mm 3 m/S 739 mmHg 70%
    Mehr zeigen